Time,TemperatureF,DewpointF,PressureIn,WindDirection,WindDirectionDegrees,WindSpeedMPH,WindSpeedGustMPH,Humidity,HourlyPrecipIn,Conditions,Clouds,dailyrainin,SoftwareType,DateUTC
2017-05-23 00:00:00,58.0,50.1,29.87,South,180,0.0,3.0,75,0.00,,,0.00,VWS V15.00,2017-05-23 04:00:00,
2017-05-23 00:09:00,57.8,50.3,29.88,South,180,0.0,0.0,76,0.00,,,0.00,VWS V15.00,2017-05-23 04:09:00,
2017-05-23 00:14:00,57.6,50.1,29.88,South,180,0.0,2.0,76,0.00,,,0.00,VWS V15.00,2017-05-23 04:14:00,
2017-05-23 00:20:00,57.5,50.0,29.88,South,179,0.0,2.0,76,0.00,,,0.00,VWS V15.00,2017-05-23 04:20:00,
2017-05-23 00:25:00,57.4,50.3,29.88,South,180,0.0,2.0,77,0.00,,,0.00,VWS V15.00,2017-05-23 04:25:00,
2017-05-23 00:30:00,57.3,50.2,29.88,South,179,0.0,2.0,77,0.00,,,0.00,VWS V15.00,2017-05-23 04:30:00,
2017-05-23 00:35:00,57.2,50.1,29.88,South,189,0.0,4.0,77,0.00,,,0.00,VWS V15.00,2017-05-23 04:35:00,
2017-05-23 00:40:00,57.1,50.3,29.88,South,183,0.0,4.0,78,0.00,,,0.00,VWS V15.00,2017-05-23 04:40:00,
2017-05-23 00:45:00,57.1,50.3,29.88,South,178,0.0,4.0,78,0.00,,,0.00,VWS V15.00,2017-05-23 04:45:00,
2017-05-23 00:50:00,57.1,50.3,29.88,South,178,0.0,4.0,78,0.00,,,0.00,VWS V15.00,2017-05-23 04:50:00,
2017-05-23 00:55:00,57.1,50.7,29.88,South,178,0.0,4.0,79,0.00,,,0.00,VWS V15.00,2017-05-23 04:55:00,
2017-05-23 01:00:00,57.3,50.2,29.88,South,180,0.0,4.0,77,0.00,,,0.00,VWS V15.00,2017-05-23 05:00:00,
2017-05-23 01:05:00,57.4,50.3,29.87,South,182,1.0,4.0,77,0.00,,,0.00,VWS V15.00,2017-05-23 05:05:00,
2017-05-23 01:10:00,57.6,50.5,29.87,South,182,1.0,4.0,77,0.00,,,0.00,VWS V15.00,2017-05-23 05:10:00,
2017-05-23 01:15:00,57.7,50.2,29.87,SSE,154,0.0,4.0,76,0.00,,,0.00,VWS V15.00,2017-05-23 05:15:00,
2017-05-23 01:21:00,57.9,50.4,29.87,South,171,1.0,5.0,76,0.00,,,0.00,VWS V15.00,2017-05-23 05:21:00,
2017-05-23 01:26:00,58.1,50.6,29.87,SSE,150,1.0,5.0,76,0.00,,,0.00,VWS V15.00,2017-05-23 05:26:00,
2017-05-23 01:31:00,58.2,50.7,29.87,South,169,0.0,0.0,76,0.00,,,0.00,VWS V15.00,2017-05-23 05:31:00,
2017-05-23 01:36:00,58.3,50.4,29.87,SW,217,1.0,3.0,75,0.00,,,0.00,VWS V15.00,2017-05-23 05:36:00,
2017-05-23 01:41:00,58.5,50.2,29.87,SSW,195,0.0,4.0,74,0.00,,,0.00,VWS V15.00,2017-05-23 05:41:00,
2017-05-23 01:46:00,58.8,50.2,29.87,ESE,107,3.0,6.0,73,0.00,,,0.00,VWS V15.00,2017-05-23 05:46:00,
2017-05-23 01:51:00,59.0,50.7,29.86,South,185,0.0,7.0,74,0.00,,,0.00,VWS V15.00,2017-05-23 05:51:00,
2017-05-23 01:56:00,59.0,50.4,29.86,SE,146,2.0,7.0,73,0.00,,,0.00,VWS V15.00,2017-05-23 05:56:00,
2017-05-23 02:01:00,59.1,50.5,29.86,SSE,161,5.0,5.0,73,0.00,,,0.00,VWS V15.00,2017-05-23 06:01:00,
2017-05-23 02:06:00,59.3,50.7,29.86,South,183,1.0,5.0,73,0.00,,,0.00,VWS V15.00,2017-05-23 06:06:00,
2017-05-23 02:11:00,59.3,50.7,29.86,SSW,198,1.0,5.0,73,0.00,,,0.00,VWS V15.00,2017-05-23 06:11:00,
2017-05-23 02:16:00,59.4,50.8,29.86,South,180,2.0,5.0,73,0.00,,,0.00,VWS V15.00,2017-05-23 06:16:00,
2017-05-23 02:21:00,59.5,50.8,29.86,SW,215,0.0,6.0,73,0.00,,,0.00,VWS V15.00,2017-05-23 06:21:00,
2017-05-23 02:27:00,59.6,50.6,29.86,SW,217,1.0,6.0,72,0.00,,,0.00,VWS V15.00,2017-05-23 06:27:00,
2017-05-23 02:32:00,59.7,50.7,29.86,South,188,0.0,1.0,72,0.00,,,0.00,VWS V15.00,2017-05-23 06:32:00,
2017-05-23 02:37:00,59.8,50.8,29.86,South,171,0.0,3.0,72,0.00,,,0.00,VWS V15.00,2017-05-23 06:37:00,
2017-05-23 02:42:00,59.7,50.7,29.86,SSE,160,5.0,5.0,72,0.00,,,0.00,VWS V15.00,2017-05-23 06:42:00,
2017-05-23 02:47:00,59.8,50.4,29.86,SSW,196,0.0,5.0,71,0.00,,,0.00,VWS V15.00,2017-05-23 06:47:00,
2017-05-23 02:52:00,59.9,50.5,29.86,SSW,207,0.0,5.0,71,0.00,,,0.00,VWS V15.00,2017-05-23 06:52:00,
2017-05-23 02:57:00,59.8,50.8,29.86,SSW,213,0.0,5.0,72,0.00,,,0.00,VWS V15.00,2017-05-23 06:57:00,
2017-05-23 03:02:00,59.8,50.8,29.85,South,169,0.0,2.0,72,0.00,,,0.00,VWS V15.00,2017-05-23 07:02:00,
2017-05-23 03:07:00,59.8,50.8,29.85,South,187,0.0,6.0,72,0.00,,,0.00,VWS V15.00,2017-05-23 07:07:00,
2017-05-23 03:12:00,59.7,50.7,29.85,SSW,199,1.0,6.0,72,0.00,,,0.00,VWS V15.00,2017-05-23 07:12:00,
2017-05-23 03:17:00,59.6,51.0,29.85,SSW,199,0.0,6.0,73,0.00,,,0.00,VWS V15.00,2017-05-23 07:17:00,
2017-05-23 03:22:00,59.5,50.8,29.85,South,184,0.0,6.0,73,0.00,,,0.00,VWS V15.00,2017-05-23 07:22:00,
2017-05-23 03:27:00,59.4,51.1,29.85,South,184,0.0,6.0,74,0.00,,,0.00,VWS V15.00,2017-05-23 07:27:00,
2017-05-23 03:33:00,59.2,50.9,29.84,South,175,0.0,1.0,74,0.00,,,0.00,VWS V15.00,2017-05-23 07:33:00,
2017-05-23 03:38:00,59.1,50.8,29.84,SSW,200,0.0,4.0,74,0.00,,,0.00,VWS V15.00,2017-05-23 07:38:00,
2017-05-23 03:43:00,59.0,51.1,29.84,SSW,200,0.0,4.0,75,0.00,,,0.00,VWS V15.00,2017-05-23 07:43:00,
2017-05-23 03:48:00,58.9,51.0,29.84,South,182,1.0,4.0,75,0.00,,,0.00,VWS V15.00,2017-05-23 07:48:00,
2017-05-23 03:53:00,58.8,50.9,29.84,South,178,0.0,4.0,75,0.00,,,0.00,VWS V15.00,2017-05-23 07:53:00,
2017-05-23 03:58:00,58.7,50.8,29.83,South,191,0.0,4.0,75,0.00,,,0.00,VWS V15.00,2017-05-23 07:58:00,
2017-05-23 04:03:00,58.6,50.7,29.83,South,190,0.0,3.0,75,0.00,,,0.00,VWS V15.00,2017-05-23 08:03:00,
2017-05-23 04:08:00,58.6,51.1,29.83,South,189,0.0,3.0,76,0.00,,,0.00,VWS V15.00,2017-05-23 08:08:00,
2017-05-23 04:13:00,58.6,51.1,29.83,SW,228,1.0,3.0,76,0.00,,,0.00,VWS V15.00,2017-05-23 08:13:00,
2017-05-23 04:18:00,58.5,51.3,29.83,South,177,0.0,3.0,77,0.00,,,0.00,VWS V15.00,2017-05-23 08:18:00,
2017-05-23 04:23:00,58.4,50.9,29.83,SSE,165,0.0,4.0,76,0.00,,,0.00,VWS V15.00,2017-05-23 08:23:00,
2017-05-23 04:28:00,58.4,51.2,29.83,SSE,165,0.0,4.0,77,0.00,,,0.00,VWS V15.00,2017-05-23 08:28:00,
2017-05-23 04:34:00,58.4,51.2,29.83,SSE,165,0.0,1.0,77,0.00,,,0.00,VWS V15.00,2017-05-23 08:34:00,
2017-05-23 04:39:00,58.3,50.8,29.83,South,188,1.0,2.0,76,0.00,,,0.00,VWS V15.00,2017-05-23 08:39:00,
2017-05-23 04:44:00,58.3,50.8,29.83,South,188,0.0,2.0,76,0.00,,,0.00,VWS V15.00,2017-05-23 08:44:00,
2017-05-23 04:49:00,58.2,51.0,29.83,SSE,158,0.0,2.0,77,0.00,,,0.00,VWS V15.00,2017-05-23 08:49:00,
2017-05-23 04:54:00,58.1,50.9,29.83,South,187,0.0,3.0,77,0.00,,,0.00,VWS V15.00,2017-05-23 08:54:00,
2017-05-23 04:59:00,58.1,50.9,29.83,SSW,192,0.0,3.0,77,0.00,,,0.00,VWS V15.00,2017-05-23 08:59:00,
2017-05-23 05:04:00,58.0,50.8,29.83,WSW,252,0.0,3.0,77,0.00,,,0.00,VWS V15.00,2017-05-23 09:04:00,
2017-05-23 05:09:00,58.0,50.8,29.83,WSW,252,1.0,3.0,77,0.00,,,0.00,VWS V15.00,2017-05-23 09:09:00,
2017-05-23 05:14:00,58.0,50.8,29.83,South,189,0.0,4.0,77,0.00,,,0.00,VWS V15.00,2017-05-23 09:14:00,
2017-05-23 05:19:00,58.0,50.8,29.83,SSW,192,1.0,5.0,77,0.00,,,0.00,VWS V15.00,2017-05-23 09:19:00,
2017-05-23 05:24:00,57.9,51.1,29.82,South,182,2.0,5.0,78,0.00,,,0.00,VWS V15.00,2017-05-23 09:24:00,
2017-05-23 05:30:00,57.9,50.7,29.82,SW,216,1.0,5.0,77,0.00,,,0.00,VWS V15.00,2017-05-23 09:30:00,
2017-05-23 05:35:00,57.8,50.7,29.83,South,170,0.0,3.0,77,0.00,,,0.00,VWS V15.00,2017-05-23 09:35:00,
2017-05-23 05:40:00,57.8,51.0,29.83,South,171,0.0,3.0,78,0.00,,,0.00,VWS V15.00,2017-05-23 09:40:00,
2017-05-23 05:45:00,57.7,50.9,29.83,South,172,0.0,3.0,78,0.00,,,0.00,VWS V15.00,2017-05-23 09:45:00,
2017-05-23 05:50:00,57.6,50.8,29.83,SSE,164,0.0,4.0,78,0.00,,,0.00,VWS V15.00,2017-05-23 09:50:00,
2017-05-23 05:55:00,57.6,50.8,29.83,SSE,164,0.0,4.0,78,0.00,,,0.00,VWS V15.00,2017-05-23 09:55:00,
2017-05-23 06:00:00,57.7,51.2,29.83,SSE,160,1.0,4.0,79,0.00,,,0.00,VWS V15.00,2017-05-23 10:00:00,
2017-05-23 06:05:00,57.6,50.8,29.83,SSE,167,0.0,5.0,78,0.00,,,0.00,VWS V15.00,2017-05-23 10:05:00,
2017-05-23 06:10:00,57.7,51.2,29.83,SSE,161,0.0,5.0,79,0.00,,,0.00,VWS V15.00,2017-05-23 10:10:00,
2017-05-23 06:15:00,57.7,51.6,29.83,South,178,0.0,5.0,80,0.00,,,0.00,VWS V15.00,2017-05-23 10:15:00,
2017-05-23 06:20:00,57.7,51.6,29.83,South,178,0.0,5.0,80,0.00,,,0.00,VWS V15.00,2017-05-23 10:20:00,
2017-05-23 06:25:00,57.6,51.5,29.82,South,178,0.0,5.0,80,0.00,,,0.00,VWS V15.00,2017-05-23 10:25:00,
2017-05-23 06:31:00,57.5,51.7,29.82,South,178,0.0,0.0,81,0.00,,,0.00,VWS V15.00,2017-05-23 10:31:00,
2017-05-23 06:36:00,57.5,52.4,29.82,South,178,0.0,0.0,83,0.00,,,0.00,VWS V15.00,2017-05-23 10:36:00,
2017-05-23 06:41:00,57.3,52.5,29.83,South,178,2.0,2.0,84,0.00,,,0.00,VWS V15.00,2017-05-23 10:41:00,
2017-05-23 06:46:00,57.0,51.6,29.83,SE,128,0.0,5.0,82,0.00,,,0.00,VWS V15.00,2017-05-23 10:46:00,
2017-05-23 06:51:00,56.9,51.5,29.83,South,178,2.0,5.0,82,0.00,,,0.00,VWS V15.00,2017-05-23 10:51:00,
2017-05-23 06:56:00,56.8,51.4,29.83,South,178,0.0,5.0,82,0.00,,,0.00,VWS V15.00,2017-05-23 10:56:00,
2017-05-23 07:01:00,56.9,51.5,29.82,South,178,0.0,0.0,82,0.00,,,0.00,VWS V15.00,2017-05-23 11:01:00,
2017-05-23 07:06:00,56.9,51.8,29.82,South,178,0.0,0.0,83,0.00,,,0.00,VWS V15.00,2017-05-23 11:06:00,
2017-05-23 07:11:00,56.9,52.4,29.82,South,178,0.0,0.0,85,0.00,,,0.00,VWS V15.00,2017-05-23 11:11:00,
2017-05-23 07:16:00,56.9,52.8,29.82,South,178,0.0,0.0,86,0.00,,,0.00,VWS V15.00,2017-05-23 11:16:00,
2017-05-23 07:21:00,56.9,52.4,29.82,South,178,0.0,1.0,85,0.00,,,0.00,VWS V15.00,2017-05-23 11:21:00,
2017-05-23 07:26:00,56.9,52.4,29.82,South,178,0.0,2.0,85,0.00,,,0.00,VWS V15.00,2017-05-23 11:26:00,
2017-05-23 07:31:00,56.8,52.0,29.82,South,178,0.0,0.0,84,0.00,,,0.00,VWS V15.00,2017-05-23 11:31:00,
2017-05-23 07:36:00,56.9,52.4,29.82,South,178,0.0,0.0,85,0.00,,,0.00,VWS V15.00,2017-05-23 11:36:00,
2017-05-23 07:41:00,56.9,52.4,29.82,South,178,0.0,0.0,85,0.00,,,0.00,VWS V15.00,2017-05-23 11:41:00,
2017-05-23 07:46:00,57.0,52.5,29.82,South,178,0.0,0.0,85,0.00,,,0.00,VWS V15.00,2017-05-23 11:46:00,
2017-05-23 07:51:00,57.0,52.5,29.82,South,178,0.0,0.0,85,0.00,,,0.00,VWS V15.00,2017-05-23 11:51:00,
2017-05-23 07:56:00,57.0,52.2,29.81,South,178,0.0,0.0,84,0.00,,,0.00,VWS V15.00,2017-05-23 11:56:00,
2017-05-23 08:02:00,57.0,52.5,29.82,South,178,0.0,0.0,85,0.00,,,0.00,VWS V15.00,2017-05-23 12:02:00,
2017-05-23 08:07:00,57.2,53.1,29.82,South,178,0.0,0.0,86,0.00,,,0.00,VWS V15.00,2017-05-23 12:07:00,
2017-05-23 08:12:00,57.2,52.4,29.82,South,178,0.0,1.0,84,0.00,,,0.00,VWS V15.00,2017-05-23 12:12:00,
2017-05-23 08:17:00,57.3,52.8,29.82,South,178,0.0,1.0,85,0.00,,,0.00,VWS V15.00,2017-05-23 12:17:00,
2017-05-23 08:22:00,57.4,52.9,29.82,South,178,0.0,1.0,85,0.00,,,0.00,VWS V15.00,2017-05-23 12:22:00,
2017-05-23 08:27:00,57.5,53.3,29.81,South,178,0.0,1.0,86,0.00,,,0.00,VWS V15.00,2017-05-23 12:27:00,
2017-05-23 08:32:00,57.6,52.8,29.81,South,178,0.0,0.0,84,0.00,,,0.00,VWS V15.00,2017-05-23 12:32:00,
2017-05-23 08:37:00,57.7,52.6,29.81,South,178,0.0,0.0,83,0.00,,,0.00,VWS V15.00,2017-05-23 12:37:00,
2017-05-23 08:42:00,57.8,52.7,29.81,South,178,0.0,0.0,83,0.00,,,0.00,VWS V15.00,2017-05-23 12:42:00,
2017-05-23 08:47:00,58.0,52.5,29.81,South,178,0.0,0.0,82,0.00,,,0.00,VWS V15.00,2017-05-23 12:47:00,
2017-05-23 08:52:00,58.2,53.1,29.81,South,178,0.0,1.0,83,0.00,,,0.00,VWS V15.00,2017-05-23 12:52:00,
2017-05-23 08:57:00,58.4,52.6,29.81,South,178,0.0,1.0,81,0.00,,,0.00,VWS V15.00,2017-05-23 12:57:00,
2017-05-23 09:02:00,58.6,52.8,29.81,South,178,0.0,0.0,81,0.00,,,0.00,VWS V15.00,2017-05-23 13:02:00,
2017-05-23 09:07:00,59.0,53.5,29.81,South,178,1.0,1.0,82,0.00,,,0.00,VWS V15.00,2017-05-23 13:07:00,
2017-05-23 09:12:00,59.3,52.8,29.82,SSW,194,2.0,4.0,79,0.00,,,0.00,VWS V15.00,2017-05-23 13:12:00,
2017-05-23 09:17:00,59.6,52.7,29.82,South,191,1.0,4.0,78,0.00,,,0.00,VWS V15.00,2017-05-23 13:17:00,
2017-05-23 09:22:00,59.8,51.9,29.82,WSW,254,1.0,5.0,75,0.00,,,0.00,VWS V15.00,2017-05-23 13:22:00,
2017-05-23 09:27:00,60.0,52.1,29.82,WSW,238,0.0,5.0,75,0.00,,,0.00,VWS V15.00,2017-05-23 13:27:00,
2017-05-23 09:33:00,60.2,52.6,29.82,SSW,213,2.0,2.0,76,0.00,,,0.00,VWS V15.00,2017-05-23 13:33:00,
2017-05-23 09:38:00,60.3,52.7,29.82,SE,138,0.0,2.0,76,0.00,,,0.00,VWS V15.00,2017-05-23 13:38:00,
2017-05-23 09:43:00,60.4,52.8,29.81,South,182,0.0,3.0,76,0.00,,,0.00,VWS V15.00,2017-05-23 13:43:00,
2017-05-23 09:48:00,60.5,53.3,29.82,South,176,1.0,3.0,77,0.00,,,0.00,VWS V15.00,2017-05-23 13:48:00,
2017-05-23 09:53:00,60.5,52.5,29.81,SSW,196,0.0,4.0,75,0.00,,,0.00,VWS V15.00,2017-05-23 13:53:00,
2017-05-23 09:58:00,60.6,53.0,29.81,SSW,196,0.0,4.0,76,0.00,,,0.00,VWS V15.00,2017-05-23 13:58:00,
2017-05-23 10:03:00,60.8,53.2,29.81,South,186,0.0,4.0,76,0.00,,,0.00,VWS V15.00,2017-05-23 14:03:00,
2017-05-23 10:08:00,61.2,53.2,29.81,SSE,165,0.0,4.0,75,0.00,,,0.00,VWS V15.00,2017-05-23 14:08:00,
2017-05-23 10:13:00,61.6,52.9,29.81,North,360,2.0,4.0,73,0.00,,,0.00,VWS V15.00,2017-05-23 14:13:00,
2017-05-23 10:18:00,61.9,52.8,29.81,SSW,203,4.0,7.0,72,0.00,,,0.00,VWS V15.00,2017-05-23 14:18:00,
2017-05-23 10:23:00,62.0,54.0,29.81,North,360,0.0,7.0,75,0.00,,,0.00,VWS V15.00,2017-05-23 14:23:00,
2017-05-23 10:28:00,62.3,53.9,29.81,North,360,1.0,7.0,74,0.00,,,0.00,VWS V15.00,2017-05-23 14:28:00,
2017-05-23 10:34:00,62.8,54.0,29.81,North,360,2.0,3.0,73,0.00,,,0.00,VWS V15.00,2017-05-23 14:34:00,
2017-05-23 10:39:00,63.2,53.3,29.80,North,360,2.0,4.0,70,0.00,,,0.00,VWS V15.00,2017-05-23 14:39:00,
2017-05-23 10:44:00,63.5,53.9,29.80,North,360,2.0,5.0,71,0.00,,,0.00,VWS V15.00,2017-05-23 14:44:00,
2017-05-23 10:49:00,63.9,54.7,29.80,North,360,1.0,5.0,72,0.00,,,0.00,VWS V15.00,2017-05-23 14:49:00,
2017-05-23 10:54:00,64.3,53.9,29.80,North,360,4.0,6.0,69,0.00,,,0.00,VWS V15.00,2017-05-23 14:54:00,
2017-05-23 10:59:00,64.2,53.8,29.80,North,360,2.0,6.0,69,0.00,,,0.00,VWS V15.00,2017-05-23 14:59:00,
2017-05-23 11:04:00,64.3,53.9,29.80,North,360,2.0,3.0,69,0.00,,,0.00,VWS V15.00,2017-05-23 15:04:00,
2017-05-23 11:09:00,64.4,54.4,29.80,North,360,1.0,3.0,70,0.00,,,0.00,VWS V15.00,2017-05-23 15:09:00,
2017-05-23 11:14:00,64.8,54.4,29.79,SSW,202,0.0,4.0,69,0.00,,,0.00,VWS V15.00,2017-05-23 15:14:00,
2017-05-23 11:19:00,65.3,53.7,29.79,South,185,1.0,4.0,66,0.00,,,0.00,VWS V15.00,2017-05-23 15:19:00,
2017-05-23 11:25:00,65.6,53.5,29.79,South,173,2.0,5.0,65,0.00,,,0.00,VWS V15.00,2017-05-23 15:25:00,
2017-05-23 11:30:00,65.9,54.7,29.79,SW,232,2.0,5.0,67,0.00,,,0.00,VWS V15.00,2017-05-23 15:30:00,
2017-05-23 11:35:00,66.5,54.4,29.79,South,174,6.0,6.0,65,0.00,,,0.00,VWS V15.00,2017-05-23 15:35:00,
2017-05-23 11:40:00,67.0,54.0,29.79,South,172,5.0,6.0,63,0.00,,,0.00,VWS V15.00,2017-05-23 15:40:00,
2017-05-23 11:45:00,67.0,53.6,29.79,South,178,0.0,6.0,62,0.00,,,0.00,VWS V15.00,2017-05-23 15:45:00,
2017-05-23 11:50:00,67.2,54.2,29.78,WSW,252,1.0,6.0,63,0.00,,,0.00,VWS V15.00,2017-05-23 15:50:00,
2017-05-23 11:55:00,67.6,54.6,29.78,SSE,159,4.0,6.0,63,0.00,,,0.00,VWS V15.00,2017-05-23 15:55:00,
2017-05-23 12:00:00,67.9,54.0,29.78,SSW,205,5.0,6.0,61,0.00,,,0.00,VWS V15.00,2017-05-23 16:00:00,
2017-05-23 12:05:00,68.4,54.4,29.78,West,281,1.0,3.0,61,0.00,,,0.00,VWS V15.00,2017-05-23 16:05:00,
2017-05-23 12:10:00,68.5,54.1,29.78,South,171,2.0,5.0,60,0.00,,,0.00,VWS V15.00,2017-05-23 16:10:00,
2017-05-23 12:16:00,68.5,55.0,29.78,SE,142,0.0,5.0,62,0.00,,,0.00,VWS V15.00,2017-05-23 16:16:00,
2017-05-23 12:21:00,68.6,54.2,29.78,WSW,249,2.0,6.0,60,0.00,,,0.00,VWS V15.00,2017-05-23 16:21:00,
2017-05-23 12:26:00,68.5,55.0,29.78,SSW,200,4.0,6.0,62,0.00,,,0.00,VWS V15.00,2017-05-23 16:26:00,
2017-05-23 12:31:00,68.3,54.3,29.78,SSW,213,1.0,1.0,61,0.00,,,0.00,VWS V15.00,2017-05-23 16:31:00,
2017-05-23 12:36:00,68.1,54.6,29.77,South,178,1.0,4.0,62,0.00,,,0.00,VWS V15.00,2017-05-23 16:36:00,
2017-05-23 12:41:00,68.1,55.0,29.77,South,180,1.0,4.0,63,0.00,,,0.00,VWS V15.00,2017-05-23 16:41:00,
2017-05-23 12:46:00,68.1,54.6,29.77,SSW,208,0.0,4.0,62,0.00,,,0.00,VWS V15.00,2017-05-23 16:46:00,
2017-05-23 12:51:00,68.0,54.5,29.77,South,170,0.0,5.0,62,0.00,,,0.00,VWS V15.00,2017-05-23 16:51:00,
2017-05-23 12:56:00,67.8,53.0,29.77,West,265,0.0,5.0,59,0.00,,,0.00,VWS V15.00,2017-05-23 16:56:00,
2017-05-23 13:01:00,67.8,53.4,29.77,WNW,288,2.0,2.0,60,0.00,,,0.00,VWS V15.00,2017-05-23 17:01:00,
2017-05-23 13:06:00,67.7,54.2,29.77,South,172,0.0,4.0,62,0.00,,,0.00,VWS V15.00,2017-05-23 17:06:00,
2017-05-23 13:12:00,67.7,54.2,29.77,South,175,1.0,4.0,62,0.00,,,0.00,VWS V15.00,2017-05-23 17:12:00,
2017-05-23 13:17:00,67.6,55.0,29.77,South,176,2.0,4.0,64,0.00,,,0.00,VWS V15.00,2017-05-23 17:17:00,
2017-05-23 13:22:00,67.5,53.1,29.76,South,176,0.0,4.0,60,0.00,,,0.00,VWS V15.00,2017-05-23 17:22:00,
2017-05-23 13:27:00,67.7,53.8,29.76,South,178,1.0,4.0,61,0.00,,,0.00,VWS V15.00,2017-05-23 17:27:00,
2017-05-23 13:32:00,67.7,54.2,29.76,South,176,2.0,2.0,62,0.00,,,0.00,VWS V15.00,2017-05-23 17:32:00,
2017-05-23 13:37:00,67.8,53.9,29.76,South,182,2.0,3.0,61,0.00,,,0.00,VWS V15.00,2017-05-23 17:37:00,
2017-05-23 13:42:00,68.1,53.2,29.75,South,181,3.0,3.0,59,0.00,,,0.00,VWS V15.00,2017-05-23 17:42:00,
2017-05-23 13:47:00,68.3,53.0,29.75,SW,220,1.0,4.0,58,0.00,,,0.00,VWS V15.00,2017-05-23 17:47:00,
2017-05-23 13:52:00,68.6,52.8,29.74,SSW,201,0.0,4.0,57,0.00,,,0.00,VWS V15.00,2017-05-23 17:52:00,
2017-05-23 13:57:00,69.1,53.7,29.75,NW,317,2.0,4.0,58,0.00,,,0.00,VWS V15.00,2017-05-23 17:57:00,
2017-05-23 14:02:00,69.3,53.4,29.74,SSW,206,3.0,3.0,57,0.00,,,0.00,VWS V15.00,2017-05-23 18:02:00,
2017-05-23 14:07:00,69.2,51.4,29.74,SSW,211,0.0,4.0,53,0.00,,,0.00,VWS V15.00,2017-05-23 18:07:00,
2017-05-23 14:13:00,69.4,52.0,29.73,SSW,211,0.0,4.0,54,0.00,,,0.00,VWS V15.00,2017-05-23 18:13:00,
2017-05-23 14:17:00,69.5,53.6,29.73,SW,215,2.0,4.0,57,0.00,,,0.00,VWS V15.00,2017-05-23 18:17:00,
2017-05-23 14:22:00,69.6,55.1,29.73,North,351,2.0,4.0,60,0.00,,,0.00,VWS V15.00,2017-05-23 18:22:00,
2017-05-23 14:27:00,70.0,54.1,29.73,SE,138,2.0,4.0,57,0.00,,,0.00,VWS V15.00,2017-05-23 18:27:00,
2017-05-23 14:32:00,70.2,54.3,29.73,SW,227,2.0,2.0,57,0.00,,,0.00,VWS V15.00,2017-05-23 18:32:00,
2017-05-23 14:37:00,70.6,54.2,29.73,WNW,292,0.0,3.0,56,0.00,,,0.00,VWS V15.00,2017-05-23 18:37:00,
2017-05-23 14:42:00,70.9,55.4,29.72,WSW,255,0.0,3.0,58,0.00,,,0.00,VWS V15.00,2017-05-23 18:42:00,
2017-05-23 14:48:00,71.2,53.7,29.72,NNW,337,0.0,3.0,54,0.00,,,0.00,VWS V15.00,2017-05-23 18:48:00,
2017-05-23 14:53:00,71.3,54.3,29.72,NW,320,1.0,3.0,55,0.00,,,0.00,VWS V15.00,2017-05-23 18:53:00,
2017-05-23 14:58:00,71.4,53.4,29.72,SSW,194,3.0,3.0,53,0.00,,,0.00,VWS V15.00,2017-05-23 18:58:00,
2017-05-23 15:03:00,71.4,54.9,29.72,ESE,111,3.0,5.0,56,0.00,,,0.00,VWS V15.00,2017-05-23 19:03:00,
2017-05-23 15:08:00,71.7,52.6,29.71,SSE,155,2.0,6.0,51,0.00,,,0.00,VWS V15.00,2017-05-23 19:08:00,
2017-05-23 15:13:00,71.9,53.9,29.71,SE,145,1.0,6.0,53,0.00,,,0.00,VWS V15.00,2017-05-23 19:13:00,
2017-05-23 15:18:00,72.4,54.8,29.71,South,169,1.0,6.0,54,0.00,,,0.00,VWS V15.00,2017-05-23 19:18:00,
2017-05-23 15:23:00,72.5,53.4,29.71,WSW,243,0.0,6.0,51,0.00,,,0.00,VWS V15.00,2017-05-23 19:23:00,
2017-05-23 15:28:00,72.2,52.5,29.70,South,190,0.0,6.0,50,0.00,,,0.00,VWS V15.00,2017-05-23 19:28:00,
2017-05-23 15:33:00,71.9,52.8,29.70,SSW,196,1.0,2.0,51,0.00,,,0.00,VWS V15.00,2017-05-23 19:33:00,
2017-05-23 15:38:00,71.7,53.2,29.70,SSW,197,0.0,2.0,52,0.00,,,0.00,VWS V15.00,2017-05-23 19:38:00,
2017-05-23 15:44:00,71.6,53.1,29.70,SSW,197,0.0,2.0,52,0.00,,,0.00,VWS V15.00,2017-05-23 19:44:00,
2017-05-23 15:49:00,71.8,53.2,29.70,SSW,198,1.0,2.0,52,0.00,,,0.00,VWS V15.00,2017-05-23 19:49:00,
2017-05-23 15:54:00,72.1,53.0,29.69,SSW,211,1.0,3.0,51,0.00,,,0.00,VWS V15.00,2017-05-23 19:54:00,
2017-05-23 15:59:00,72.2,55.7,29.69,WSW,258,2.0,3.0,56,0.00,,,0.00,VWS V15.00,2017-05-23 19:59:00,
2017-05-23 16:04:00,72.2,53.6,29.69,WSW,251,0.0,3.0,52,0.00,,,0.00,VWS V15.00,2017-05-23 20:04:00,
2017-05-23 16:09:00,72.4,53.3,29.69,NNW,329,1.0,3.0,51,0.00,,,0.00,VWS V15.00,2017-05-23 20:09:00,
2017-05-23 16:14:00,72.5,51.2,29.69,West,263,2.0,3.0,47,0.00,,,0.00,VWS V15.00,2017-05-23 20:14:00,
2017-05-23 16:19:00,72.7,53.0,29.69,West,263,0.0,3.0,50,0.00,,,0.00,VWS V15.00,2017-05-23 20:19:00,
2017-05-23 16:24:00,72.7,53.5,29.68,West,263,0.0,3.0,51,0.00,,,0.00,VWS V15.00,2017-05-23 20:24:00,
2017-05-23 16:30:00,72.5,53.4,29.69,West,263,1.0,3.0,51,0.00,,,0.00,VWS V15.00,2017-05-23 20:30:00,
2017-05-23 16:35:00,72.4,52.7,29.68,SW,230,3.0,3.0,50,0.00,,,0.00,VWS V15.00,2017-05-23 20:35:00,
2017-05-23 16:40:00,72.1,50.8,29.68,SSW,210,2.0,3.0,47,0.00,,,0.00,VWS V15.00,2017-05-23 20:40:00,
2017-05-23 16:45:00,71.8,52.2,29.68,SSW,210,0.0,3.0,50,0.00,,,0.00,VWS V15.00,2017-05-23 20:45:00,
2017-05-23 16:50:00,71.7,52.1,29.68,SSW,206,1.0,3.0,50,0.00,,,0.00,VWS V15.00,2017-05-23 20:50:00,
2017-05-23 16:55:00,71.3,51.7,29.68,SSW,192,0.0,4.0,50,0.00,,,0.00,VWS V15.00,2017-05-23 20:55:00,
2017-05-23 17:00:00,71.1,52.1,29.68,SSW,192,1.0,4.0,51,0.00,,,0.00,VWS V15.00,2017-05-23 21:00:00,
2017-05-23 17:05:00,71.0,51.5,29.68,SSW,192,0.0,1.0,50,0.00,,,0.00,VWS V15.00,2017-05-23 21:05:00,
2017-05-23 17:10:00,70.9,52.4,29.68,SSW,192,0.0,1.0,52,0.00,,,0.00,VWS V15.00,2017-05-23 21:10:00,
2017-05-23 17:15:00,71.0,54.0,29.68,SSW,192,0.0,1.0,55,0.00,,,0.00,VWS V15.00,2017-05-23 21:15:00,
2017-05-23 17:20:00,71.0,55.0,29.68,SSW,192,0.0,1.0,57,0.00,,,0.00,VWS V15.00,2017-05-23 21:20:00,
2017-05-23 17:25:00,71.0,52.5,29.67,SSW,192,0.0,1.0,52,0.00,,,0.00,VWS V15.00,2017-05-23 21:25:00,
2017-05-23 17:30:00,70.9,52.9,29.67,SSW,192,0.0,0.0,53,0.00,,,0.00,VWS V15.00,2017-05-23 21:30:00,
2017-05-23 17:36:00,70.8,52.3,29.68,SSW,192,0.0,0.0,52,0.00,,,0.00,VWS V15.00,2017-05-23 21:36:00,
2017-05-23 17:41:00,70.7,53.3,29.68,SSW,192,0.0,0.0,54,0.00,,,0.00,VWS V15.00,2017-05-23 21:41:00,
2017-05-23 17:46:00,70.6,53.2,29.68,SSW,192,0.0,0.0,54,0.00,,,0.00,VWS V15.00,2017-05-23 21:46:00,
2017-05-23 17:51:00,70.4,54.0,29.68,SSW,194,1.0,3.0,56,0.00,,,0.00,VWS V15.00,2017-05-23 21:51:00,
2017-05-23 17:56:00,69.9,53.5,29.68,North,360,1.0,3.0,56,0.00,,,0.00,VWS V15.00,2017-05-23 21:56:00,
2017-05-23 18:01:00,69.4,53.0,29.68,North,360,0.0,1.0,56,0.00,,,0.00,VWS V15.00,2017-05-23 22:01:00,
2017-05-23 18:06:00,68.8,53.9,29.68,North,360,0.0,2.0,59,0.00,,,0.00,VWS V15.00,2017-05-23 22:06:00,
2017-05-23 18:11:00,68.1,57.2,29.68,South,178,0.0,2.0,68,0.00,,,0.00,VWS V15.00,2017-05-23 22:11:00,
2017-05-23 18:16:00,67.1,56.6,29.68,SSW,203,0.0,2.0,69,0.00,,,0.00,VWS V15.00,2017-05-23 22:16:00,
2017-05-23 18:21:00,66.3,57.4,29.68,SSW,203,0.0,2.0,73,0.00,,,0.00,VWS V15.00,2017-05-23 22:21:00,
2017-05-23 18:26:00,65.6,57.8,29.69,SSW,203,0.0,2.0,76,0.00,,,0.00,VWS V15.00,2017-05-23 22:26:00,
2017-05-23 18:31:00,64.9,57.5,29.69,South,179,2.0,3.0,77,0.00,,,0.00,VWS V15.00,2017-05-23 22:31:00,
2017-05-23 18:37:00,63.9,55.8,29.69,North,360,0.0,5.0,75,0.01,,,0.01,VWS V15.00,2017-05-23 22:37:00,
2017-05-23 18:42:00,63.3,56.3,29.69,South,176,0.0,5.0,78,0.01,,,0.01,VWS V15.00,2017-05-23 22:42:00,
2017-05-23 18:47:00,62.7,56.8,29.69,South,176,0.0,5.0,81,0.01,,,0.01,VWS V15.00,2017-05-23 22:47:00,
2017-05-23 18:52:00,62.3,56.7,29.69,North,360,0.0,5.0,82,0.01,,,0.01,VWS V15.00,2017-05-23 22:52:00,
2017-05-23 18:57:00,62.0,57.1,29.69,North,360,0.0,5.0,84,0.02,,,0.02,VWS V15.00,2017-05-23 22:57:00,
2017-05-23 19:02:00,61.7,57.5,29.69,North,360,0.0,0.0,86,0.02,,,0.02,VWS V15.00,2017-05-23 23:02:00,
2017-05-23 19:07:00,61.4,57.8,29.68,North,360,1.0,1.0,88,0.02,,,0.02,VWS V15.00,2017-05-23 23:07:00,
2017-05-23 19:12:00,61.0,57.4,29.68,North,360,2.0,2.0,88,0.02,,,0.02,VWS V15.00,2017-05-23 23:12:00,
2017-05-23 19:17:00,60.7,57.4,29.68,North,360,0.0,2.0,89,0.02,,,0.02,VWS V15.00,2017-05-23 23:17:00,
2017-05-23 19:22:00,60.4,57.5,29.67,North,360,0.0,2.0,90,0.02,,,0.02,VWS V15.00,2017-05-23 23:22:00,
2017-05-23 19:27:00,60.2,57.3,29.67,North,360,0.0,2.0,90,0.02,,,0.02,VWS V15.00,2017-05-23 23:27:00,
2017-05-23 19:32:00,60.1,57.2,29.68,North,360,0.0,1.0,90,0.02,,,0.02,VWS V15.00,2017-05-23 23:32:00,
2017-05-23 19:37:00,60.0,57.4,29.68,North,360,0.0,1.0,91,0.02,,,0.02,VWS V15.00,2017-05-23 23:37:00,
2017-05-23 19:43:00,60.0,57.4,29.67,North,360,0.0,1.0,91,0.02,,,0.02,VWS V15.00,2017-05-23 23:43:00,
2017-05-23 19:48:00,59.9,57.6,29.67,North,360,1.0,1.0,92,0.02,,,0.02,VWS V15.00,2017-05-23 23:48:00,
2017-05-23 19:53:00,59.9,57.3,29.67,North,360,0.0,2.0,91,0.02,,,0.02,VWS V15.00,2017-05-23 23:53:00,
2017-05-23 19:58:00,59.8,57.5,29.67,North,355,1.0,3.0,92,0.02,,,0.02,VWS V15.00,2017-05-23 23:58:00,
2017-05-23 20:03:00,59.8,57.5,29.67,North,355,0.0,0.0,92,0.00,,,0.02,VWS V15.00,2017-05-24 00:03:00,
2017-05-23 20:08:00,59.7,57.4,29.66,NE,37,2.0,2.0,92,0.00,,,0.02,VWS V15.00,2017-05-24 00:08:00,
2017-05-23 20:13:00,59.7,57.4,29.66,NNE,23,2.0,3.0,92,0.00,,,0.02,VWS V15.00,2017-05-24 00:13:00,
2017-05-23 20:18:00,59.5,56.9,29.66,NE,37,0.0,6.0,91,0.00,,,0.02,VWS V15.00,2017-05-24 00:18:00,
2017-05-23 20:23:00,59.5,56.9,29.66,NE,36,0.0,6.0,91,0.00,,,0.02,VWS V15.00,2017-05-24 00:23:00,
2017-05-23 20:28:00,59.4,56.8,29.66,NNE,27,2.0,6.0,91,0.00,,,0.02,VWS V15.00,2017-05-24 00:28:00,
2017-05-23 20:33:00,59.3,56.7,29.66,North,11,1.0,2.0,91,0.00,,,0.02,VWS V15.00,2017-05-24 00:33:00,
2017-05-23 20:38:00,59.3,56.7,29.66,NNE,29,0.0,4.0,91,0.00,,,0.02,VWS V15.00,2017-05-24 00:38:00,
2017-05-23 20:43:00,59.2,56.6,29.66,NNE,30,0.0,4.0,91,0.00,,,0.02,VWS V15.00,2017-05-24 00:43:00,
2017-05-23 20:49:00,59.1,56.5,29.66,NNE,29,0.0,4.0,91,0.00,,,0.02,VWS V15.00,2017-05-24 00:49:00,
2017-05-23 20:54:00,59.0,56.4,29.66,NNE,30,1.0,4.0,91,0.00,,,0.02,VWS V15.00,2017-05-24 00:54:00,
2017-05-23 20:59:00,58.9,56.3,29.67,NNE,30,0.0,4.0,91,0.00,,,0.02,VWS V15.00,2017-05-24 00:59:00,
2017-05-23 21:04:00,58.8,56.5,29.67,NNE,30,0.0,0.0,92,0.00,,,0.02,VWS V15.00,2017-05-24 01:04:00,
2017-05-23 21:09:00,58.7,56.4,29.66,NNE,30,0.0,0.0,92,0.00,,,0.02,VWS V15.00,2017-05-24 01:09:00,
2017-05-23 21:14:00,58.6,56.3,29.66,NNE,30,0.0,0.0,92,0.00,,,0.02,VWS V15.00,2017-05-24 01:14:00,
2017-05-23 21:19:00,58.5,56.2,29.66,NNE,30,0.0,0.0,92,0.00,,,0.02,VWS V15.00,2017-05-24 01:19:00,
2017-05-23 21:24:00,58.3,56.0,29.66,NNE,30,0.0,0.0,92,0.00,,,0.02,VWS V15.00,2017-05-24 01:24:00,
2017-05-23 21:29:00,58.2,55.9,29.66,NNE,29,0.0,2.0,92,0.00,,,0.02,VWS V15.00,2017-05-24 01:29:00,